Theta_e
348 348 347 346 343 339 336 335 336 337 337 338 341 342 342 341 342 343 342 341 340 339 338 338 334 331 331 332 330 325 323 325 324 323 325 325 324 326 327 326 327 328
348 348 348 346 344 341 339 336 335 336 338 338 339 340 341 342 342 342 342 341 341 338 337 337 333 329 331 332 330 324 321 323 324 326 328 327 324 324 325 325 326 328
349 348 348 346 344 342 340 338 336 335 337 338 339 340 341 342 341 342 342 341 341 339 337 336 334 329 329 331 331 326 321 320 322 324 327 327 324 322 323 325 326 327
349 349 348 346 343 340 339 339 337 336 336 338 340 340 341 341 342 342 342 342 341 339 337 337 334 330 328 330 330 327 323 320 320 322 324 325 324 322 321 324 326 326
349 349 349 347 345 342 340 339 338 336 336 338 340 341 341 342 342 342 342 342 342 341 338 337 336 332 329 330 330 328 325 322 321 321 322 323 324 322 320 321 323 324
349 349 349 348 346 343 341 338 337 337 337 338 339 340 341 342 342 342 342 342 341 340 338 337 336 334 331 330 330 328 325 323 322 322 321 321 323 323 321 319 320 322
349 349 349 349 348 346 342 338 337 337 337 338 339 341 341 342 342 341 342 342 341 339 337 336 337 336 333 330 329 328 325 323 323 323 320 318 321 322 321 319 319 320
350 349 349 349 349 348 345 341 338 337 337 338 339 340 341 341 341 341 341 341 341 339 337 335 336 337 336 332 330 328 324 321 322 321 320 319 319 320 321 320 318 319
350 350 350 350 349 348 346 342 338 338 338 338 339 340 341 341 341 341 340 341 342 341 339 336 335 337 338 335 331 329 324 320 320 320 319 319 319 319 321 321 319 318
350 350 350 351 350 349 346 342 339 338 338 338 339 339 340 341 342 342 341 341 342 342 341 338 334 335 338 337 333 331 327 322 319 320 320 319 319 319 320 321 321 319
350 351 351 351 351 350 347 344 341 340 338 338 339 339 340 341 342 343 342 341 341 342 342 339 335 334 336 337 335 332 330 326 322 320 320 319 319 319 319 320 321 321
351 351 351 352 351 350 349 347 344 342 340 338 338 339 339 340 341 342 343 341 341 341 343 341 338 335 335 336 336 334 332 331 327 323 320 319 318 318 319 319 320 320
351 351 351 352 352 352 351 350 347 345 341 339 338 338 338 339 340 341 342 341 341 341 343 343 341 338 337 338 338 336 334 333 332 329 326 323 320 318 318 318 319 319
351 351 352 353 353 353 352 351 350 347 344 341 339 338 338 338 339 340 341 342 342 342 342 343 343 340 339 339 339 339 337 336 336 335 334 332 329 325 321 318 318 318
351 352 352 353 353 354 353 352 352 350 347 345 342 338 337 338 339 340 341 342 342 342 343 343 343 341 339 339 339 340 339 338 339 339 339 339 338 336 332 327 321 319
352 352 353 353 354 354 354 354 353 352 350 348 344 339 337 337 338 340 341 342 342 342 343 342 342 341 340 339 340 342 341 341 341 341 341 341 341 341 340 337 332 325
353 353 354 354 354 354 355 355 354 353 352 350 347 344 340 338 338 339 340 341 342 342 343 342 341 340 340 340 341 343 344 343 343 343 343 343 343 342 342 342 340 336
354 354 355 355 355 355 355 356 356 355 353 352 351 347 343 340 338 338 338 339 342 343 343 342 341 340 341 342 343 344 345 345 345 345 344 344 344 343 344 344 343 341
355 355 355 355 355 356 356 357 357 356 354 353 351 350 347 343 339 337 337 338 341 342 342 341 341 342 342 343 344 345 346 346 346 346 345 345 345 345 345 346 345 343
356 356 355 356 356 356 357 357 357 357 355 354 353 352 350 344 339 337 336 337 339 340 340 341 341 343 344 344 346 346 346 346 346 346 346 346 346 346 347 347 346 345
356 356 356 356 357 358 358 358 358 357 356 355 355 353 349 344 340 338 336 336 338 338 340 341 342 344 345 345 346 346 346 346 347 347 347 347 347 348 348 347 347 346
356 356 356 357 358 359 359 358 358 358 357 356 355 353 350 347 344 341 338 338 337 338 340 341 343 345 346 346 347 347 346 347 348 349 349 349 349 349 348 348 347 346
356 356 356 358 359 359 359 358 358 358 357 357 356 354 352 349 346 344 342 340 339 340 340 342 345 347 347 347 348 348 348 349 349 350 350 350 350 350 349 349 347 346
355 355 356 357 359 359 359 359 358 358 357 357 356 355 352 349 347 345 344 341 341 340 340 343 347 347 346 347 348 348 349 350 351 351 351 351 351 350 350 349 347 345
355 356 356 357 358 359 358 359 358 358 357 357 357 356 354 351 349 348 346 343 342 341 342 345 347 347 346 348 349 349 351 352 353 353 352 352 351 350 350 348 346 345
355 357 356 356 357 357 358 358 358 358 358 358 357 357 356 354 352 350 348 346 344 343 344 345 346 346 347 349 350 352 353 354 354 354 353 353 352 350 349 348 346 344
Wind_Speed
40 39 40 40 39 37 36 35 35 34 33 32 30 28 27 25 25 24 24 23 22 22 22 21 20 18 17 16 16 16 16 16 17 17 16 16 17 18 19 18 17 18
42 40 39 39 40 39 37 36 36 35 34 32 31 29 28 26 25 24 24 24 23 22 22 21 21 19 18 18 17 17 17 18 19 18 17 16 17 19 19 19 19 19
44 42 40 38 39 39 39 38 37 37 35 33 31 30 29 28 26 25 25 25 24 23 22 22 21 20 20 19 19 18 18 19 19 19 18 17 17 18 19 20 20 21
45 44 41 38 37 38 39 39 38 38 38 36 33 31 30 29 28 27 26 26 25 24 24 23 22 21 21 21 21 20 20 19 19 19 19 19 18 19 20 21 21 22
45 44 42 39 37 37 39 40 40 39 39 38 35 33 31 31 30 29 28 27 27 26 25 25 24 23 22 22 22 22 22 21 20 20 21 20 20 20 21 22 23 24
46 44 43 41 38 38 39 41 41 41 40 39 37 36 34 33 31 30 29 29 28 28 27 27 26 25 24 24 24 24 23 23 21 21 22 22 22 22 22 23 24 25
48 46 44 42 40 39 40 41 41 42 41 40 39 38 36 35 34 32 31 30 30 29 29 29 28 27 26 25 25 25 25 24 24 23 23 23 23 23 23 23 24 25
48 46 44 43 41 41 41 41 42 42 42 42 41 40 38 37 36 35 33 32 32 31 30 30 30 29 28 27 26 26 26 26 25 25 24 24 25 25 25 24 24 25
49 47 45 44 43 42 41 41 42 42 42 43 42 41 40 39 38 37 35 34 33 32 32 31 32 32 31 29 28 27 27 27 26 26 25 25 26 26 26 26 26 26
50 48 47 45 44 43 42 41 42 42 43 43 42 42 41 40 39 38 37 36 35 34 33 33 33 33 33 32 30 28 28 28 27 27 26 26 27 27 28 27 27 27
51 50 48 47 45 44 43 41 41 42 43 43 43 43 42 41 40 39 39 38 37 36 35 34 34 34 34 33 31 30 29 29 29 28 27 27 28 28 29 29 29 29
53 51 50 48 46 45 43 42 41 42 42 43 43 43 42 42 41 41 40 39 39 38 37 36 35 35 35 34 33 31 30 31 31 30 29 29 29 29 29 30 30 30
53 52 50 48 46 44 44 43 42 42 42 42 43 42 42 42 42 42 41 40 40 40 39 38 37 36 36 36 34 33 32 32 32 32 31 30 29 30 30 31 32 31
54 52 51 49 46 44 44 43 43 43 42 42 43 43 43 42 42 42 41 41 41 41 41 39 39 38 38 37 36 35 34 33 33 33 32 31 30 30 30 31 32 31
54 53 51 50 48 46 45 44 44 43 43 43 43 43 43 42 42 42 42 42 42 42 42 41 41 40 40 39 38 37 35 34 34 33 33 32 31 31 30 31 31 31
54 53 52 51 50 48 47 45 44 44 44 44 43 43 43 42 42 42 43 43 43 43 43 43 43 42 41 40 40 39 37 36 35 34 33 32 32 31 31 31 30 30
54 53 52 52 51 50 49 47 45 44 44 44 44 44 43 43 43 43 43 43 43 43 44 44 44 43 42 41 41 40 38 37 36 35 33 33 32 32 32 32 30 29
54 53 53 52 52 51 50 48 46 45 45 45 45 45 44 43 43 44 43 43 43 44 44 44 44 43 43 42 41 40 38 37 36 35 34 33 33 32 32 32 31 29
54 53 53 52 52 51 50 49 48 47 46 46 46 46 45 44 44 43 43 44 44 45 44 44 44 43 43 42 41 40 38 36 36 35 34 34 33 31 31 33 32 29
53 53 53 52 52 52 51 50 50 48 47 47 46 46 46 45 45 44 43 44 44 44 43 43 43 43 43 42 41 39 36 35 35 35 34 34 32 31 29 30 31 29
53 53 53 52 52 52 52 51 50 49 48 47 47 47 46 45 45 44 43 44 44 43 43 43 43 43 43 42 41 38 35 33 33 34 34 33 32 31 28 27 28 29
54 53 53 53 52 52 52 52 51 50 49 48 48 48 47 47 46 45 44 44 43 43 43 43 43 43 42 41 40 36 33 32 32 33 34 34 32 31 29 26 26 27
54 53 53 53 53 53 53 52 51 50 49 49 49 49 48 48 48 46 45 44 43 42 42 42 42 42 41 40 37 33 31 31 31 32 33 33 31 29 28 28 27 26
54 54 53 53 53 54 54 52 51 51 50 50 50 49 49 48 47 46 45 43 43 42 41 41 41 40 38 37 34 31 30 30 30 31 32 31 30 28 27 27 27 26
54 54 54 53 54 54 53 52 51 50 50 50 50 49 48 47 46 46 45 44 43 42 40 40 40 38 36 35 31 29 29 30 30 30 29 28 27 27 26 24 23 24
55 55 54 54 54 54 53 52 51 51 50 50 49 49 48 46 45 45 45 44 43 42 41 40 38 36 35 33 30 28 29 29 29 28 26 24 24 24 24 22 22 24
Wind_Direction
232 234 235 235 234 232 231 229 227 228 228 227 225 225 228 231 232 233 232 230 229 228 226 227 228 229 228 228 227 224 221 225 228 225 223 226 229 230 232 233 231 229
231 233 235 236 236 233 232 231 230 231 231 229 228 228 230 233 235 236 236 233 230 229 226 225 227 229 230 231 229 225 222 226 229 229 227 229 230 229 230 232 232 231
231 232 233 234 236 234 233 232 232 233 233 232 231 230 230 233 236 239 239 237 233 231 228 225 225 229 231 233 233 230 227 228 230 232 232 233 234 231 229 229 232 233
231 232 233 234 235 235 233 232 232 232 233 233 232 231 231 233 237 239 240 239 236 233 231 227 225 227 230 232 234 234 233 231 231 233 236 236 237 236 231 228 230 233
231 232 233 233 234 235 234 233 232 231 232 233 233 232 232 233 236 238 239 239 237 234 232 230 228 228 229 231 233 235 236 235 232 232 235 237 237 238 235 231 229 231
231 232 232 233 233 234 234 233 231 231 232 233 233 232 233 233 235 237 238 238 236 235 233 231 229 229 230 231 233 235 236 237 235 233 235 236 236 238 237 234 232 231
231 231 232 232 233 233 235 233 232 231 232 233 234 234 234 234 235 237 237 237 236 235 234 231 230 231 232 233 234 235 235 237 237 237 237 237 237 237 237 237 236 234
231 231 232 232 233 233 234 233 232 232 232 233 233 234 235 235 236 237 237 237 236 235 235 233 231 231 233 234 236 235 234 235 237 237 238 239 239 238 237 237 239 239
230 231 232 232 232 232 232 232 232 232 232 232 233 234 235 236 237 237 237 237 237 237 237 235 233 232 233 235 237 237 235 235 237 238 239 240 241 240 239 238 240 241
230 231 231 232 231 231 230 230 230 231 231 232 233 233 234 235 236 238 238 238 238 239 239 238 235 232 233 236 238 238 237 236 238 239 241 242 244 245 244 242 242 243
230 230 230 231 231 230 229 229 229 229 231 232 232 233 234 235 236 238 239 239 240 240 240 241 238 235 235 237 239 240 239 238 239 241 243 245 247 249 248 246 246 246
229 230 231 232 231 230 229 229 228 229 230 231 232 233 234 235 237 238 239 240 241 242 242 243 242 239 238 239 240 242 242 240 240 241 244 247 249 251 251 251 250 250
229 231 232 232 232 231 230 230 229 229 230 230 231 233 234 235 236 238 240 242 243 244 244 245 245 243 241 240 241 242 244 244 243 243 245 247 250 253 254 254 254 253
229 230 231 233 233 233 232 231 230 230 231 231 232 233 234 235 237 238 240 243 244 246 246 247 247 246 244 242 242 242 244 245 246 246 247 249 251 255 256 257 257 255
228 229 230 232 232 233 233 232 231 231 232 233 233 233 234 235 237 239 241 243 245 246 247 248 249 249 248 246 245 244 245 246 247 249 250 252 254 257 259 261 261 260
227 228 229 230 231 232 233 233 233 232 232 233 234 235 235 236 237 238 240 242 245 247 248 249 249 250 250 249 248 248 248 249 250 252 254 256 258 260 263 265 266 266
227 227 228 229 231 232 232 233 233 233 233 233 234 235 236 236 237 239 240 242 244 246 248 249 250 251 252 251 251 250 250 251 252 255 258 260 262 263 266 268 269 270
227 227 228 229 230 231 232 233 233 233 233 233 234 235 235 236 237 239 240 242 244 246 248 250 252 253 253 254 253 252 252 254 255 257 259 262 264 266 269 271 270 272
227 227 228 229 230 231 231 232 232 233 234 234 234 234 234 236 237 239 241 242 244 246 248 251 253 254 254 255 254 254 255 256 258 260 261 263 265 267 270 272 272 272
227 228 230 231 231 230 230 231 232 233 234 234 233 233 234 235 237 238 240 242 244 246 249 252 254 255 256 256 256 256 258 259 260 261 262 263 265 267 269 273 274 273
227 229 230 231 230 229 229 230 231 233 233 233 233 233 235 236 237 238 240 241 243 246 248 251 254 254 255 256 257 258 259 261 261 261 262 262 263 264 264 267 272 273
228 230 231 230 229 228 228 230 231 232 233 232 233 234 235 236 237 238 239 241 243 245 247 250 252 253 254 256 257 259 260 260 260 260 261 261 261 262 262 261 264 270
229 230 231 230 228 228 229 230 231 231 232 232 233 234 235 236 236 237 239 240 242 244 246 249 250 252 254 256 257 259 259 259 260 259 258 259 259 260 260 258 259 265
231 231 231 230 229 229 230 231 231 232 232 232 233 233 234 235 236 237 239 241 242 244 246 248 250 252 255 257 258 260 260 260 260 258 257 257 257 257 258 261 262 264
231 231 231 231 231 232 232 232 233 233 233 232 233 234 235 235 236 237 239 240 242 244 246 247 249 253 255 256 258 259 260 260 259 256 255 255 255 254 256 260 262 262
230 229 229 231 233 234 234 234 234 233 232 232 232 234 234 235 236 237 238 239 240 242 244 246 248 251 253 254 257 257 257 257 256 253 251 250 249 250 252 254 255 258